DW8201 Weather Reports


Display with metric or nautical units.
time (UTC)temp
F
wind
direction
speed
MPH
gust
MPH
rain 1hr
in
rain 24hr
in
rain mn
in
humidity
%
barometer
mb
20260906215653 67 119 0.0 3.0 0.00 0.00 0.00 66 1018.8
20260906215247 67 127 1.0 4.0 0.00 0.00 0.00 66 1018.7
20260906215145 67 150 1.0 4.0 0.00 0.00 0.00 66 1018.7
20260906214229 67 159 0.0 4.0 0.00 0.00 0.00 65 1018.7
20260906213729 67 133 0.0 4.0 0.00 0.00 0.00 66 1018.7
20260906213721 67 151 0.0 4.0 0.00 0.00 0.00 65 1018.7
20260906213417 67 115 1.0 4.0 0.00 0.00 0.00 66 1018.6
20260906212705 67 158 0.0 4.0 0.00 0.00 0.00 66 1018.6
20260906211652 67 130 0.0 4.0 0.00 0.00 0.00 66 1018.6
20260906211146 67 99 1.0 5.0 0.00 0.00 0.00 66 1018.5
20260906210640 67 105 1.0 5.0 0.00 0.00 0.00 65 1018.6
20260906210132 68 88 0.0 5.0 0.00 0.00 0.00 65 1018.7
20260906205723 68 106 0.0 0.0 0.00 0.00 0.00 65 1018.9
20260906205215 68 110 0.0 5.0 0.00 0.00 0.00 65 1018.9
20260906204709 68 101 0.0 5.0 0.00 0.00 0.00 65 1019.0
20260906204201 68 119 0.0 5.0 0.00 0.00 0.00 65 1019.1
20260906203653 68 70 1.0 7.0 0.00 0.00 0.00 64 1019.2
20260906203145 68 128 1.0 7.0 0.00 0.00 0.00 64 1019.2
20260906202643 69 141 0.0 7.0 0.00 0.00 0.00 64 1019.4
20260906202638 69 82 0.0 7.0 0.00 0.00 0.00 64 1019.2
20260906201625 69 108 0.0 2.0 0.00 0.00 0.00 64 1019.5
20260906201215 69 126 0.0 3.0 0.00 0.00 0.00 63 1019.5
20260906200707 69 112 1.0 5.0 0.00 0.00 0.00 63 1019.5
20260906200158 68 103 1.0 5.0 0.00 0.00 0.00 64 1019.4
20260906195651 68 78 0.0 4.0 0.00 0.00 0.00 65 1019.4
20260906195148 68 108 0.0 0.0 0.00 0.00 0.00 66 1019.3
20260906195141 68 116 0.0 0.0 0.00 0.00 0.00 65 1019.3
20260906194128 69 77 0.0 0.0 0.00 0.00 0.00 66 1019.3
20260906193623 69 101 0.0 1.0 0.00 0.00 0.00 66 1019.4
20260906193117 69 99 0.0 1.0 0.00 0.00 0.00 66 1019.5
20260906192608 69 88 0.0 0.0 0.00 0.00 0.00 66 1019.6
20260906192158 69 88 0.0 0.0 0.00 0.00 0.00 66 1019.7
20260906191653 69 87 0.0 0.0 0.00 0.00 0.00 65 1019.8
20260906191146 69 87 0.0 0.0 0.00 0.00 0.00 65 1019.9
20260906190638 69 100 0.0 0.0 0.00 0.00 0.00 65 1020.0
20260906190131 69 64 0.0 0.0 0.00 0.00 0.00 65 1020.1
20260906185624 69 81 0.0 0.0 0.00 0.00 0.00 65 1020.1
20260906185121 70 70 0.0 0.0 0.00 0.00 0.00 65 1020.2
20260906185116 69 67 0.0 0.0 0.00 0.00 0.00 65 1020.1
20260906184607 70 67 0.0 0.0 0.00 0.00 0.00 65 1020.1
20260906184102 70 68 0.0 0.0 0.00 0.00 0.00 65 1020.0
20260906183555 70 70 0.0 0.0 0.00 0.00 0.00 65 1020.2
20260906182642 70 70 0.0 0.0 0.00 0.00 0.00 63 1020.2
20260906182137 71 70 0.0 0.0 0.00 0.00 0.00 63 1020.2
20260906181743 72 70 0.0 0.0 0.00 0.00 0.00 61 1020.2
20260906181543 71 70 0.0 0.0 0.00 0.00 0.00 63 1020.2
20260906181140 71 70 0.0 0.0 0.00 0.00 0.00 62 1020.2
20260906180618 71 70 0.0 0.0 0.00 0.00 0.00 62 1020.2
20260906175606 72 95 0.0 0.0 0.00 0.00 0.00 61 1020.3
20260906175100 72 95 0.0 0.0 0.00 0.00 0.00 60 1020.4
20260906174557 73 107 0.0 0.0 0.00 0.00 0.00 60 1020.3
20260906174229 74 68 0.0 0.0 0.00 0.00 0.00 57 1020.6
20260906174206 74 65 0.0 0.0 0.00 0.00 0.00 58 1020.5
20260906174103 73 99 0.0 0.0 0.00 0.00 0.00 59 1020.4
20260906173555 73 67 0.0 0.0 0.00 0.00 0.00 59 1020.3
20260906172528 74 72 0.0 0.0 0.00 0.00 0.00 57 1020.5
20260906171614 74 52 0.0 2.0 0.00 0.00 0.00 56 1020.6
20260906171105 75 84 0.0 3.0 0.00 0.00 0.00 56 1020.6
20260906170602 75 154 1.0 5.0 0.00 0.00 0.00 55 1020.7
20260906170208 76 100 3.0 6.0 0.00 0.00 0.00 53 1020.8
20260906170106 76 124 2.0 6.0 0.00 0.00 0.00 54 1020.8
20260906165034 76 151 2.0 6.0 0.00 0.00 0.00 53 1020.8
20260906164525 76 132 1.0 3.0 0.00 0.00 0.00 53 1020.9
20260906164020 76 151 1.0 5.0 0.00 0.00 0.00 53 1020.8
20260906163515 76 108 2.0 5.0 0.00 0.00 0.00 53 1020.8
20260906163118 76 104 2.0 7.0 0.00 0.00 0.00 53 1020.8
20260906162559 76 149 2.0 7.0 0.00 0.00 0.00 53 1020.8
20260906162054 76 135 3.0 7.0 0.00 0.00 0.00 53 1020.9
20260906161758 76 174 2.0 7.0 0.00 0.00 0.00 53 1021.1
20260906161557 76 118 2.0 7.0 0.00 0.00 0.00 52 1020.9
20260906160508 76 168 3.0 8.0 0.00 0.00 0.00 52 1021.2
20260906160308 76 143 4.0 8.0 0.00 0.00 0.00 52 1021.2
20260906155522 76 177 3.0 8.0 0.00 0.00 0.00 51 1021.2
20260906155517 76 136 4.0 8.0 0.00 0.00 0.00 51 1021.2
20260906154500 76 158 3.0 9.0 0.00 0.00 0.00 52 1021.2
20260906154052 76 168 4.0 9.0 0.00 0.00 0.00 51 1021.2
20260906153546 76 106 4.0 8.0 0.00 0.00 0.00 51 1021.2
20260906153036 76 165 4.0 8.0 0.00 0.00 0.00 50 1021.2
20260906152529 77 129 4.0 10.0 0.00 0.00 0.00 52 1021.2
20260906152019 76 165 4.0 10.0 0.00 0.00 0.00 50 1021.2
20260906151510 76 143 3.0 7.0 0.00 0.00 0.00 53 1021.2
20260906151003 76 127 3.0 8.0 0.00 0.00 0.00 52 1021.2
20260906150454 76 124 4.0 8.0 0.00 0.00 0.00 50 1021.3
20260906145950 76 149 3.0 7.0 0.00 0.00 0.00 52 1021.4
20260906145945 76 50 2.0 8.0 0.00 0.00 0.00 51 1021.5
20260906145741 76 94 3.0 9.0 0.00 0.00 0.00 50 1021.7
20260906145033 76 132 2.0 8.0 0.00 0.00 0.00 52 1021.6
20260906144022 76 62 3.0 8.0 0.00 0.00 0.00 52 1021.8
20260906144017 76 77 3.0 9.0 0.00 0.00 0.00 52 1021.7
20260906143002 76 75 3.0 9.0 0.00 0.00 0.00 52 1021.8
20260906142452 76 129 4.0 9.0 0.00 0.00 0.00 52 1021.9
20260906141946 76 137 2.0 8.0 0.00 0.00 0.00 54 1022.1
20260906141942 76 115 2.0 9.0 0.00 0.00 0.00 55 1022.0
20260906141539 76 124 2.0 8.0 0.00 0.00 0.00 52 1022.0
20260906140932 75 144 2.0 7.0 0.00 0.00 0.00 52 1022.2
20260906140015 76 53 2.0 9.0 0.00 0.00 0.00 53 1022.1
20260906135504 76 125 3.0 9.0 0.00 0.00 0.00 53 1022.2
20260906134956 75 97 3.0 9.0 0.00 0.00 0.00 53 1022.2
20260906134449 75 73 3.0 9.0 0.00 0.00 0.00 55 1022.3
20260906133954 75 110 4.0 8.0 0.00 0.00 0.00 53 1022.3
20260906133448 75 160 3.0 8.0 0.00 0.00 0.00 52 1022.5
20260906132946 75 198 3.0 7.0 0.00 0.00 0.00 53 1022.5
20260906132525 75 143 4.0 10.0 0.00 0.00 0.00 53 1022.5
20260906132414 74 123 4.0 10.0 0.00 0.00 0.00 55 1022.5
20260906131455 74 97 4.0 9.0 0.00 0.00 0.00 53 1022.6
20260906130947 74 209 4.0 11.0 0.00 0.00 0.00 52 1022.7
20260906130441 74 188 3.0 11.0 0.00 0.00 0.00 54 1022.7
20260906125935 74 133 4.0 8.0 0.00 0.00 0.00 55 1022.7
20260906125434 74 145 4.0 8.0 0.00 0.00 0.00 54 1022.7
20260906125030 74 186 4.0 9.0 0.00 0.00 0.00 55 1022.7
20260906124521 74 168 3.0 9.0 0.00 0.00 0.00 53 1022.9
20260906124013 74 173 3.0 10.0 0.00 0.00 0.00 54 1023.0
20260906123508 74 124 5.0 10.0 0.00 0.00 0.00 53 1023.1
20260906123358 74 169 4.0 9.0 0.00 0.00 0.00 53 1023.0
20260906123156 73 113 3.0 9.0 0.00 0.00 0.00 54 1023.0
20260906121935 73 131 4.0 9.0 0.00 0.00 0.00 54 1023.0
20260906121432 73 84 4.0 9.0 0.00 0.00 0.00 53 1023.1
20260906120930 73 110 3.0 7.0 0.00 0.00 0.00 52 1023.4
20260906120521 73 112 3.0 8.0 0.00 0.00 0.00 56 1023.4
20260906120014 73 141 3.0 8.0 0.00 0.00 0.00 55 1023.5
20260906115508 73 91 3.0 8.0 0.00 0.00 0.00 54 1023.6
20260906114958 73 131 4.0 10.0 0.00 0.00 0.00 54 1023.8
20260906114449 72 118 4.0 10.0 0.00 0.00 0.00 54 1023.8
20260906113937 72 114 3.0 8.0 0.00 0.00 0.00 55 1023.9
20260906113932 72 172 4.0 8.0 0.00 0.00 0.00 53 1023.9
20260906113023 72 158 3.0 8.0 0.00 0.00 0.00 55 1023.9
20260906112519 71 104 4.0 12.0 0.00 0.00 0.00 55 1024.0
20260906112009 71 82 4.0 12.0 0.00 0.00 0.00 56 1024.1
20260906111503 71 86 4.0 12.0 0.00 0.00 0.00 55 1024.1
20260906110956 72 163 3.0 11.0 0.00 0.00 0.00 55 1024.2
20260906110452 71 76 4.0 10.0 0.00 0.00 0.00 57 1024.2
20260906105943 71 98 4.0 10.0 0.00 0.00 0.00 57 1024.3
20260906105438 70 89 4.0 9.0 0.00 0.00 0.00 57 1024.3
20260906104928 70 118 4.0 9.0 0.00 0.00 0.00 59 1024.3
20260906104520 70 144 4.0 11.0 0.00 0.00 0.00 57 1024.4
20260906104014 70 156 4.0 11.0 0.00 0.00 0.00 56 1024.5
20260906103505 70 159 5.0 13.0 0.00 0.00 0.00 56 1024.5
20260906102957 70 108 5.0 13.0 0.00 0.00 0.00 56 1024.6
20260906102453 70 129 5.0 11.0 0.00 0.00 0.00 58 1024.7
20260906101945 69 112 4.0 10.0 0.00 0.00 0.00 55 1024.7
20260906101440 70 211 4.0 11.0 0.00 0.00 0.00 57 1024.7
20260906101326 69 150 4.0 11.0 0.00 0.00 0.00 58 1024.9
20260906100420 69 140 5.0 10.0 0.00 0.00 0.00 58 1025.0
20260906095915 69 68 6.0 12.0 0.00 0.00 0.00 58 1025.0
20260906095507 69 147 5.0 12.0 0.00 0.00 0.00 59 1024.9
20260906094959 69 113 4.0 9.0 0.00 0.00 0.00 59 1025.0
20260906094452 69 77 4.0 9.0 0.00 0.00 0.00 60 1025.2
20260906093947 69 132 4.0 9.0 0.00 0.00 0.00 60 1025.2
20260906093440 69 137 4.0 9.0 0.00 0.00 0.00 61 1025.3
20260906092931 68 137 4.0 8.0 0.00 0.00 0.00 60 1025.3
20260906092423 68 214 4.0 8.0 0.00 0.00 0.00 62 1025.3
20260906091916 68 92 4.0 12.0 0.00 0.00 0.00 61 1025.3
20260906091810 67 137 4.0 12.0 0.00 0.00 0.00 60 1025.2
20260906091003 67 243 4.0 9.0 0.00 0.00 0.00 62 1025.2
20260906090454 67 72 5.0 10.0 0.00 0.00 0.00 63 1025.2
20260906085943 67 96 4.0 10.0 0.00 0.00 0.00 63 1025.3
20260906085436 67 141 4.0 10.0 0.00 0.00 0.00 62 1025.3
20260906084930 67 111 4.0 10.0 0.00 0.00 0.00 65 1025.3
20260906084423 66 105 4.0 9.0 0.00 0.00 0.00 65 1025.4
20260906084311 66 153 3.0 9.0 0.00 0.00 0.00 66 1025.5
20260906083808 65 108 3.0 8.0 0.00 0.00 0.00 67 1025.5
20260906083002 65 147 3.0 8.0 0.00 0.00 0.00 69 1025.5
20260906082454 65 99 3.0 8.0 0.00 0.00 0.00 70 1025.5
20260906082344 64 120 3.0 8.0 0.00 0.00 0.00 68 1025.5
20260906081437 64 155 3.0 9.0 0.00 0.00 0.00 69 1025.5
20260906080927 64 133 3.0 9.0 0.00 0.00 0.00 72 1025.6
20260906080430 63 108 3.0 8.0 0.00 0.00 0.00 75 1025.6
20260906075910 63 108 2.0 8.0 0.00 0.00 0.00 75 1025.7
20260906075502 62 118 2.0 6.0 0.00 0.00 0.00 77 1025.8
20260906074952 61 93 1.0 6.0 0.00 0.00 0.00 79 1025.8
20260906074444 61 140 2.0 6.0 0.00 0.00 0.00 80 1025.7
20260906073934 60 131 1.0 6.0 0.00 0.00 0.00 81 1025.6
20260906073427 59 181 0.0 4.0 0.00 0.00 0.00 83 1025.5
20260906073215 58 104 1.0 4.0 0.00 0.00 0.00 86 1025.6
20260906073011 58 133 0.0 4.0 0.00 0.00 0.00 85 1025.6
20260906071904 57 126 0.0 3.0 0.00 0.00 0.00 88 1025.6
20260906071507 56 115 0.0 2.0 0.00 0.00 0.00 90 1025.5
20260906070947 56 134 0.0 2.0 0.00 0.00 0.00 90 1025.6
20260906070441 55 125 1.0 4.0 0.00 0.00 0.00 91 1025.7
20260906065936 55 145 1.0 4.0 0.00 0.00 0.00 92 1025.5
20260906065429 54 108 1.0 4.0 0.00 0.00 0.00 93 1025.6
20260906064921 54 114 0.0 2.0 0.00 0.00 0.00 94 1025.6
20260906064714 53 129 0.0 2.0 0.00 0.00 0.00 95 1025.6
20260906064201 51 124 1.0 4.0 0.00 0.00 0.00 96 1025.5
20260906063951 53 129 0.0 2.0 0.00 0.00 0.00 95 1025.5
20260906063451 52 129 1.0 3.0 0.00 0.00 0.00 96 1025.5
20260906062452 51 105 1.0 4.0 0.00 0.00 0.00 96 1025.6
20260906061930 51 120 0.0 2.0 0.00 0.00 0.00 96 1025.5
20260906061421 50 106 1.0 3.0 0.00 0.00 0.00 95 1025.5
20260906060915 50 136 1.0 3.0 0.00 0.00 0.00 96 1025.5
20260906060408 50 148 0.0 0.0 0.00 0.00 0.00 95 1025.7
20260906055900 49 148 0.0 3.0 0.00 0.00 0.00 96 1025.7
20260906055355 49 144 0.0 3.0 0.00 0.00 0.00 95 1025.7
20260906055345 49 158 0.0 0.0 0.00 0.00 0.00 95 1025.7
20260906054435 49 235 0.0 0.0 0.00 0.00 0.00 95 1025.6
20260906053928 48 235 0.0 0.0 0.00 0.00 0.00 95 1025.6
20260906053420 48 235 0.0 0.0 0.00 0.00 0.00 95 1025.5
20260906052913 48 235 0.0 0.0 0.00 0.00 0.00 95 1025.5
20260906052405 48 235 0.0 0.0 0.00 0.00 0.00 95 1025.5
20260906051858 48 235 0.0 0.0 0.00 0.00 0.00 95 1025.4
20260906051353 49 235 0.0 0.0 0.00 0.00 0.00 95 1025.3
20260906051150 49 235 0.0 0.0 0.00 0.00 0.00 95 1025.4
20260906050949 49 235 0.0 0.0 0.00 0.00 0.00 95 1025.4
20260906045936 48 235 0.0 0.0 0.00 0.00 0.00 95 1025.5
20260906045428 48 235 0.0 0.0 0.00 0.00 0.00 95 1025.4
20260906044921 48 235 0.0 0.0 0.00 0.00 0.00 95 1025.4
20260906044414 48 235 0.0 0.0 0.00 0.00 0.00 95 1025.4
20260906043905 48 235 0.0 0.0 0.00 0.00 0.00 95 1025.5
20260906043359 48 235 0.0 0.0 0.00 0.00 0.00 95 1025.6
20260906042850 48 235 0.0 0.0 0.00 0.00 0.00 94 1025.6
20260906042346 48 235 0.0 0.0 0.00 0.00 0.00 94 1025.6
20260906042143 48 235 0.0 0.0 0.00 0.00 0.00 94 1025.7
20260906041336 48 235 0.0 0.0 0.00 0.00 0.00 94 1025.7
20260906040829 48 235 0.0 0.0 0.00 0.00 0.00 94 1025.9
20260906040419 48 235 0.0 0.0 0.00 0.00 0.00 94 1025.9
20260906035910 48 235 0.0 0.0 0.00 0.00 0.00 94 1025.8
20260906035405 48 235 0.0 0.0 0.00 0.00 0.00 94 1025.9
20260906034857 48 235 0.0 0.0 0.00 0.00 0.00 94 1025.9
20260906034352 48 235 0.0 0.0 0.00 0.00 0.00 94 1025.9
20260906033846 48 235 0.0 0.0 0.00 0.00 0.00 94 1025.8
20260906033339 49 235 0.0 0.0 0.00 0.00 0.00 94 1025.7
20260906033229 49 235 0.0 0.0 0.00 0.00 0.00 94 1025.7
20260906032330 49 235 0.0 0.0 0.00 0.00 0.00 94 1025.7
20260906031824 49 235 0.0 0.0 0.00 0.00 0.00 94 1025.6
20260906031415 49 235 0.0 0.0 0.00 0.00 0.00 94 1025.6
20260906030910 49 235 0.0 0.0 0.00 0.00 0.00 94 1025.7
20260906030401 49 235 0.0 0.0 0.00 0.00 0.00 94 1025.6
20260906025852 49 235 0.0 0.0 0.00 0.00 0.00 94 1025.6
20260906025345 49 235 0.0 0.0 0.00 0.00 0.00 94 1025.7
20260906024850 49 235 0.0 0.0 0.00 0.00 0.00 94 1026.0
20260906024335 49 235 0.0 0.0 0.00 0.00 0.00 94 1026.1
20260906023828 49 235 0.0 0.0 0.00 0.00 0.00 94 1026.2
20260906023621 49 235 0.0 0.0 0.00 0.00 0.00 93 1026.3
20260906022911 49 235 0.0 0.0 0.00 0.00 0.00 94 1026.2
20260906022402 49 235 0.0 0.0 0.00 0.00 0.00 94 1026.2
20260906021853 49 235 0.0 0.0 0.00 0.00 0.00 94 1026.2
20260906021347 49 235 0.0 0.0 0.00 0.00 0.00 93 1026.3
20260906020839 49 235 0.0 0.0 0.00 0.00 0.00 93 1026.2
20260906020332 49 235 0.0 0.0 0.00 0.00 0.00 93 1026.2
20260906015827 49 235 0.0 0.0 0.00 0.00 0.00 93 1026.3
20260906015318 49 235 0.0 0.0 0.00 0.00 0.00 94 1026.2
20260906014908 49 235 0.0 0.0 0.00 0.00 0.00 93 1026.0
20260906014700 49 235 0.0 0.0 0.00 0.00 0.00 93 1026.0
20260906013854 49 235 0.0 0.0 0.00 0.00 0.00 93 1026.0
20260906013349 49 235 0.0 0.0 0.00 0.00 0.00 93 1025.9
20260906012841 49 235 0.0 0.0 0.00 0.00 0.00 93 1025.8
20260906012336 50 235 0.0 0.0 0.00 0.00 0.00 93 1025.9
20260906011830 50 235 0.0 0.0 0.00 0.00 0.00 93 1025.8
20260906011321 50 235 0.0 0.0 0.00 0.00 0.00 93 1025.9
20260906010827 50 235 0.0 0.0 0.00 0.00 0.00 93 1025.9
20260906010305 50 235 0.0 0.0 0.00 0.00 0.00 93 1025.8
20260906010059 50 235 0.0 0.0 0.00 0.00 0.00 93 1026.0
20260906005349 50 235 0.0 0.0 0.00 0.00 0.00 93 1026.1
20260906004845 50 235 0.0 0.0 0.00 0.00 0.00 93 1026.1
20260906004339 50 235 0.0 0.0 0.00 0.00 0.00 93 1026.0
20260906004027 51 235 0.0 0.0 0.00 0.00 0.00 93 1025.9
20260906003827 51 235 0.0 0.0 0.00 0.00 0.00 93 1025.9
20260906003823 50 235 0.0 0.0 0.00 0.00 0.00 92 1026.0
20260906003419 50 235 0.0 0.0 0.00 0.00 0.00 92 1026.0
20260906001808 51 235 0.0 0.0 0.00 0.00 0.00 92 1025.8
20260906001605 51 235 0.0 0.0 0.00 0.00 0.00 92 1025.8
20260906000757 51 235 0.0 0.0 0.00 0.00 0.00 92 1025.8
20260906000252 51 235 0.0 0.0 0.00 0.00 0.00 92 1025.9
20260905235848 51 235 0.0 0.0 0.00 0.00 0.00 92 1025.9
20260905235341 51 235 0.0 0.0 0.00 0.00 0.00 92 1025.9
20260905235132 51 235 0.0 0.0 0.00 0.00 0.00 91 1025.9
20260905234324 51 235 0.0 0.0 0.00 0.00 0.00 91 1025.9
20260905233815 51 235 0.0 0.0 0.00 0.00 0.00 91 1025.9
20260905233608 52 235 0.0 0.0 0.00 0.00 0.00 92 1025.8
20260905232758 52 235 0.0 0.0 0.00 0.00 0.00 91 1025.8
20260905232543 52 235 0.0 0.0 0.00 0.00 0.00 91 1025.6
20260905232343 52 235 0.0 0.0 0.00 0.00 0.00 91 1025.7
20260905231237 52 235 0.0 0.0 0.00 0.00 0.00 92 1025.6
20260905230830 52 235 0.0 0.0 0.00 0.00 0.00 92 1025.6
20260905230323 52 235 0.0 0.0 0.00 0.00 0.00 92 1025.6
20260905225813 52 235 0.0 0.0 0.00 0.00 0.00 92 1025.5
20260905225307 52 235 0.0 0.0 0.00 0.00 0.00 91 1025.5
20260905224801 52 235 0.0 0.0 0.00 0.00 0.00 91 1025.6
20260905224254 52 235 0.0 0.0 0.00 0.00 0.00 91 1025.6
20260905223749 53 235 0.0 0.0 0.00 0.00 0.00 91 1025.6
20260905223240 52 235 0.0 0.0 0.00 0.00 0.00 91 1025.7
20260905222735 53 235 0.0 0.0 0.00 0.00 0.00 91 1025.7
20260905222622 53 235 0.0 0.0 0.00 0.00 0.00 90 1025.7
20260905221815 53 235 0.0 0.0 0.00 0.00 0.00 90 1025.7
20260905221309 53 235 0.0 0.0 0.00 0.00 0.00 90 1025.6
20260905221105 53 235 0.0 0.0 0.00 0.00 0.00 90 1025.5
20260905220259 53 235 0.0 0.0 0.00 0.00 0.00 90 1025.5